SL-16 DEB, 22377

Orbit data source: Space-Track

SL-16 DEB, 22377 is space debris in LEO originally from a launch on Fri, 25 Dec 1992 UTC launched from the Tyuratam Missile And Space Complex (TTMTR). Debris objects in space refer to the collection of defunct objects orbiting the Earth. Examples of debris include non-operational satellites, rocket bodies, and fragments generated from explosions, collisions, or faulty payload assembly.

Loading next visibility...
Identifier
22377, 1992-093BS
Orbit
LEO
Country
Flag of CISCIS
Related business
Manufacturer
Unknown
Mission
Spacecraft
Bus & Motor
Unknown
Mass
Unknown
Launch date (UTC)
1992-12-25 (33 years ago)
Launch vehicle
Unknown
Launch site
Tyuratam Missile And Space Complex (TTMTR)
Object type
Payload
Rocket body
Debris
Shape & HBR
Unknown shape, 0.1 m
Radar Cross Section
Small (<0.1 m²)

Expand to show TLE details & history
Last TLE update: 17 hours ago

TLE from 17 hours ago
0 SL-16 DEB
1 22377U 92093BS  26036.88016484  .00000414  00000-0  26107-3 0  9998
2 22377  71.0932 203.2968 0056469 196.7115 163.2147 14.09175944696947
Epoch: 2026-02-05T21:07Z
TLE epoch observation values (Epoch: 2026-02-05T21:07:26.242Z)
Latitude
0.00002°
Longitude
110.41142°
Altitude
903.761 km
Speed
7.38 km/s
True Right ascension
13h 33m 11s
True Declination
0° 00' 00"
Sunlit
Object was in daylight at epoch
Visualization orbit readout
Latitude
Unknown
Longitude
Unknown
Altitude
Unknown
Speed
Unknown
Apparent Right ascension
Unknown
Apparent Declination
Unknown
Sunlit
N/A
Visualization observer readout
Local Sidereal Time
15:52:07
Azimuth
Unknown
Elevation
Unknown
Doppler factor
Unknown
Orbital elements
Apogee altitude
900.988 km
Perigee altitude
819.241 km
Semi-major axis
7,238.251 km
Eccentricity
0.00565
Inclination
71.0932°
RAAN
203.2968°
Arg. of periapsis
196.7115°
True anomaly
163.40031°
Mean anomaly
163.2147°
Eccentric anomaly
163.30763°
Mean motion
3.52446 °/min
Orbital period
102.14 mins
BSTAR
0.00026107
Loading maneuver chart data...
Computing Atmospheric mass density...

Documentation

Showing up to 5 results
|